DW0126 Weather Reports


Display with metric or nautical units.
time (UTC)temp
F
wind
direction
speed
MPH
gust
MPH
rain 1hr
in
rain 24hr
in
rain mn
in
humidity
%
barometer
mb
20260509212817 69 293 2.0 4.0 0.00 0.00 0.00 57 1018.4
20260509211817 68 45 1.0 2.0 0.00 0.00 0.00 57 1018.3
20260509210817 69 113 1.0 2.0 0.00 0.00 0.00 57 1018.3
20260509205857 69 45 3.0 7.0 0.00 0.00 0.00 58 1018.6
20260509204817 69 293 2.0 4.0 0.00 0.00 0.00 57 1018.7
20260509203857 69 293 3.0 5.0 0.00 0.00 0.00 56 1018.7
20260509202817 69 23 1.0 3.0 0.00 0.00 0.00 57 1018.7
20260509201817 68 0.0 1.0 0.00 0.00 0.00 58 1018.8
20260509200817 68 23 2.0 3.0 0.00 0.00 0.00 58 1019.0
20260509195817 68 23 2.0 3.0 0.00 0.00 0.00 59 1019.1
20260509194817 67 0.0 0.0 0.00 0.00 0.00 60 1019.2
20260509193817 69 315 1.0 3.0 0.00 0.00 0.00 58 1019.4
20260509192837 68 338 2.0 3.0 0.00 0.00 0.00 59 1019.6
20260509191817 67 270 3.0 8.0 0.00 0.00 0.00 60 1019.6
20260509190817 67 293 2.0 6.0 0.00 0.00 0.00 59 1019.7
20260509185817 67 0 2.0 4.0 0.00 0.00 0.00 60 1019.8
20260509184837 67 23 3.0 4.0 0.00 0.00 0.00 61 1019.8
20260509183817 67 45 2.0 5.0 0.00 0.00 0.00 59 1019.9
20260509182817 67 270 1.0 2.0 0.00 0.00 0.00 60 1020.1
20260509181817 65 0.0 0.0 0.00 0.00 0.00 62 1020.1
20260509180817 65 68 1.0 3.0 0.00 0.00 0.00 64 1020.1
20260509175817 64 23 4.0 6.0 0.00 0.00 0.00 64 1020.0
20260509174817 64 68 4.0 8.0 0.00 0.00 0.00 65 1020.2
20260509173817 63 23 3.0 5.0 0.00 0.00 0.00 67 1020.2
20260509172817 63 23 4.0 5.0 0.00 0.00 0.00 68 1020.4
20260509171817 61 45 4.0 6.0 0.00 0.00 0.00 69 1020.6
20260509170817 61 68 4.0 6.0 0.00 0.00 0.00 72 1020.7
20260509165817 60 68 4.0 6.0 0.00 0.00 0.00 73 1020.5
20260509164817 59 45 3.0 5.0 0.00 0.00 0.00 74 1020.5
20260509163817 59 68 3.0 5.0 0.00 0.00 0.00 76 1020.7
20260509162817 58 23 3.0 5.0 0.00 0.00 0.00 78 1020.9
20260509161817 58 68 3.0 5.0 0.00 0.00 0.00 79 1021.0
20260509160817 57 45 3.0 6.0 0.00 0.00 0.00 80 1021.0
20260509155817 56 23 4.0 6.0 0.00 0.00 0.00 82 1021.1
20260509154817 56 68 3.0 11.0 0.00 0.00 0.00 83 1021.1
20260509153817 55 68 5.0 8.0 0.00 0.00 0.00 86 1021.2
20260509152817 55 45 5.0 8.0 0.00 0.00 0.00 88 1021.3
20260509151817 54 45 3.0 6.0 0.00 0.00 0.00 89 1021.6
20260509150817 53 45 4.0 7.0 0.00 0.00 0.00 91 1021.5
20260509145817 52 68 5.0 8.0 0.00 0.00 0.00 92 1021.4
20260509144817 52 90 2.0 4.0 0.00 0.00 0.00 93 1021.6
20260509143837 50 23 2.0 3.0 0.00 0.00 0.00 94 1021.5
20260509142837 49 23 2.0 4.0 0.00 0.00 0.00 94 1021.5
20260509141817 49 23 2.0 5.0 0.00 0.00 0.00 94 1021.6
20260509140817 48 23 2.0 3.0 0.00 0.00 0.00 94 1021.5
20260509135817 47 45 2.0 3.0 0.00 0.00 0.00 94 1021.4
20260509134817 46 0.0 0.0 0.00 0.00 0.00 94 1021.5
20260509133817 45 0.0 0.0 0.00 0.00 0.00 93 1021.4
20260509132817 45 0.0 0.0 0.00 0.00 0.00 93 1021.4
20260509131837 45 68 2.0 3.0 0.00 0.00 0.00 93 1021.5
20260509130817 45 45 3.0 4.0 0.00 0.00 0.00 93 1021.4
20260509125837 45 68 2.0 3.0 0.00 0.00 0.00 93 1021.6
20260509124817 45 0.0 1.0 0.00 0.00 0.00 93 1021.5
20260509123817 45 0.0 1.0 0.00 0.00 0.00 92 1021.6
20260509122817 46 0.0 0.0 0.00 0.00 0.00 92 1021.7
20260509121817 46 0.0 0.0 0.00 0.00 0.00 92 1021.6
20260509120817 47 45 1.0 3.0 0.00 0.00 0.00 92 1021.6
20260509115817 47 0.0 1.0 0.00 0.00 0.00 92 1021.7
20260509114817 47 0.0 1.0 0.00 0.00 0.00 92 1021.7
20260509113837 47 0.0 0.0 0.00 0.00 0.00 92 1022.0
20260509112817 48 0.0 0.0 0.00 0.00 0.00 92 1021.9
20260509111817 48 0.0 0.0 0.00 0.00 0.00 92 1022.1
20260509110817 48 0.0 0.0 0.00 0.00 0.00 92 1022.2
20260509105817 48 0.0 0.0 0.00 0.00 0.00 92 1022.1
20260509104817 48 0.0 1.0 0.00 0.00 0.00 92 1022.2
20260509103817 48 23 1.0 1.0 0.00 0.00 0.00 92 1022.2
20260509102817 48 0.0 0.0 0.00 0.00 0.00 92 1022.1
20260509101817 48 0.0 0.0 0.00 0.00 0.00 91 1022.3
20260509100837 48 0.0 0.0 0.00 0.00 0.00 91 1022.3
20260509095817 48 23 1.0 1.0 0.00 0.00 0.00 92 1022.3
20260509094817 47 23 1.0 2.0 0.00 0.00 0.00 92 1022.2
20260509093817 47 0.0 0.0 0.00 0.00 0.00 91 1022.3
20260509092837 47 0.0 0.0 0.00 0.00 0.00 91 1022.3
20260509091817 47 0.0 0.0 0.00 0.00 0.00 91 1022.3
20260509090817 47 0.0 0.0 0.00 0.00 0.00 91 1022.4
20260509085817 47 0.0 0.0 0.00 0.00 0.00 91 1022.5
20260509084817 47 0.0 0.0 0.00 0.00 0.00 91 1022.5
20260509083837 47 0.0 0.0 0.00 0.00 0.00 91 1022.6
20260509082817 47 0.0 0.0 0.00 0.00 0.00 91 1022.7
20260509081817 48 0.0 0.0 0.00 0.00 0.00 90 1022.7
20260509080817 48 0.0 0.0 0.00 0.00 0.00 90 1022.8
20260509075816 48 0.0 0.0 0.00 0.00 0.00 90 1022.8
20260509074817 48 0.0 0.0 0.00 0.00 0.00 90 1022.7
20260509073817 48 0.0 0.0 0.00 0.00 0.00 90 1022.7
20260509072817 48 0.0 0.0 0.00 0.00 0.00 90 1022.7
20260509071817 49 0.0 0.0 0.00 0.00 0.00 90 1022.6
20260509070816 49 0.0 0.0 0.00 0.00 0.00 89 1022.6
20260509065815 49 0.0 0.0 0.00 0.00 0.00 88 1022.5
20260509064815 49 0.0 0.0 0.00 0.00 0.00 87 1022.4
20260509063816 50 0.0 0.0 0.00 0.00 0.00 87 1022.4
20260509062816 50 0.0 0.0 0.00 0.00 0.00 86 1022.4
20260509061815 51 0.0 0.0 0.00 0.00 0.00 87 1022.3
20260509060816 51 0.0 0.0 0.00 0.00 0.00 86 1022.2
20260509055816 51 0.0 0.0 0.00 0.00 0.00 86 1022.2
20260509054815 52 0.0 0.0 0.00 0.00 0.00 86 1022.2
20260509053855 52 0.0 0.0 0.00 0.00 0.00 85 1022.1
20260509052835 52 0.0 0.0 0.00 0.00 0.00 84 1022.2
20260509051815 53 0.0 0.0 0.00 0.00 0.00 83 1022.2
20260509050815 53 0.0 0.0 0.00 0.00 0.00 82 1022.1
20260509045815 54 225 1.0 3.0 0.00 0.00 0.00 81 1022.0
20260509044835 54 225 2.0 2.0 0.00 0.00 0.00 81 1022.0
20260509043836 55 0.0 0.0 0.00 0.00 0.00 81 1021.9
20260509042815 55 0.0 1.0 0.00 0.00 0.00 79 1021.9
20260509041815 56 0.0 0.0 0.00 0.00 0.00 78 1021.9
20260509040816 56 225 2.0 3.0 0.00 0.00 0.00 77 1021.9
20260509035815 56 0.0 0.0 0.00 0.00 0.00 77 1021.8
20260509034815 57 225 2.0 3.0 0.00 0.00 0.00 76 1021.8
20260509033815 57 248 3.0 4.0 0.00 0.00 0.00 75 1021.6
20260509032836 57 248 3.0 5.0 0.00 0.00 0.00 74 1021.6
20260509031816 57 248 3.0 4.0 0.00 0.00 0.00 74 1021.5
20260509030815 57 203 4.0 6.0 0.00 0.00 0.00 73 1021.4
20260509025815 58 225 4.0 7.0 0.00 0.00 0.00 72 1021.4
20260509024816 59 248 2.0 4.0 0.00 0.00 0.00 70 1021.3
20260509023815 60 248 1.0 3.0 0.00 0.00 0.00 69 1021.3
20260509022816 60 225 3.0 5.0 0.00 0.00 0.00 67 1021.2
20260509021816 61 248 2.0 6.0 0.00 0.00 0.00 66 1021.1
20260509020836 61 270 2.0 4.0 0.00 0.00 0.00 65 1021.1
20260509015815 61 225 4.0 6.0 0.00 0.00 0.00 65 1021.0
20260509014816 61 293 5.0 9.0 0.00 0.00 0.00 65 1021.1
20260509013815 61 248 4.0 5.0 0.00 0.00 0.00 64 1021.1
20260509012836 62 248 5.0 8.0 0.00 0.00 0.00 64 1021.2
20260509011815 62 248 3.0 6.0 0.00 0.00 0.00 63 1021.1
20260509010836 62 248 7.0 10.0 0.00 0.00 0.00 63 1021.3
20260509005815 62 225 4.0 6.0 0.00 0.00 0.00 63 1021.2
20260509004815 62 293 3.0 5.0 0.00 0.00 0.00 62 1021.2
20260509003815 61 270 3.0 4.0 0.00 0.00 0.00 61 1021.2
20260509002816 62 248 3.0 6.0 0.00 0.00 0.00 60 1021.3
20260509001815 63 293 3.0 5.0 0.00 0.00 0.00 60 1021.2
20260509000815 63 293 3.0 6.0 0.00 0.00 0.00 59 1021.2
20260508235815 62 270 2.0 4.0 0.00 0.00 0.00 60 1021.2
20260508234815 62 248 5.0 7.0 0.00 0.00 0.00 59 1021.3
20260508233816 62 225 5.0 8.0 0.00 0.00 0.00 58 1021.3
20260508232815 63 248 6.0 10.0 0.00 0.00 0.00 57 1021.3
20260508231815 63 248 5.0 9.0 0.00 0.00 0.00 57 1021.2
20260508230815 64 225 3.0 5.0 0.00 0.00 0.00 56 1021.2
20260508225816 63 225 3.0 8.0 0.00 0.00 0.00 57 1021.3
20260508224836 62 225 6.0 8.0 0.00 0.00 0.00 59 1021.2
20260508223815 62 225 6.0 8.0 0.00 0.00 0.00 59 1021.2
20260508222815 61 225 5.0 8.0 0.00 0.00 0.00 60 1021.3
20260508221815 61 225 4.0 6.0 0.00 0.00 0.00 60 1021.4
20260508220816 61 203 5.0 9.0 0.00 0.00 0.00 61 1021.4
20260508215816 61 225 4.0 5.0 0.00 0.00 0.00 59 1021.3
20260508214815 61 293 5.0 7.0 0.00 0.00 0.00 59 1021.2
20260508213816 61 248 5.0 8.0 0.00 0.00 0.00 58 1021.2